Time,TemperatureF,DewpointF,PressureIn,WindDirection,WindDirectionDegrees,WindSpeedMPH,WindSpeedGustMPH,Humidity,HourlyPrecipIn,Conditions,Clouds,dailyrainin,SoftwareType,DateUTC
2013-08-29 00:01:00,78.2,73.0,29.02,SE,135,2.8,7.0,84,0.00,,,0.00,Rainwise IP-100,2013-08-29 05:01:00,
2013-08-29 00:06:00,78.2,73.0,29.03,SE,135,3.7,7.0,85,0.00,,,0.00,Rainwise IP-100,2013-08-29 05:06:00,
2013-08-29 00:11:00,78.2,73.0,29.03,SE,135,3.0,7.0,85,0.00,,,0.00,Rainwise IP-100,2013-08-29 05:11:00,
2013-08-29 00:16:00,78.2,73.0,29.03,SSE,157,4.0,7.0,85,0.00,,,0.00,Rainwise IP-100,2013-08-29 05:16:00,
2013-08-29 00:21:00,78.2,73.0,29.04,SE,135,4.4,5.0,85,0.00,,,0.00,Rainwise IP-100,2013-08-29 05:21:00,
2013-08-29 00:26:00,78.1,73.0,29.03,SE,135,3.7,5.0,86,0.00,,,0.00,Rainwise IP-100,2013-08-29 05:26:00,
2013-08-29 00:31:00,78.1,73.0,29.03,SE,135,4.0,4.0,86,0.00,,,0.00,Rainwise IP-100,2013-08-29 05:31:00,
2013-08-29 00:36:00,78.1,73.0,29.03,SSE,157,3.3,4.0,86,0.00,,,0.00,Rainwise IP-100,2013-08-29 05:36:00,
2013-08-29 00:41:00,78.0,73.0,29.03,SE,135,3.7,4.0,86,0.00,,,0.00,Rainwise IP-100,2013-08-29 05:41:00,
2013-08-29 00:46:00,78.0,73.0,29.04,SE,135,3.0,4.0,86,0.00,,,0.00,Rainwise IP-100,2013-08-29 05:46:00,
2013-08-29 00:51:00,78.0,73.0,29.04,SE,135,2.1,5.0,87,0.00,,,0.00,Rainwise IP-100,2013-08-29 05:51:00,
2013-08-29 00:56:00,77.9,73.0,29.03,SSE,157,1.4,5.0,87,0.00,,,0.00,Rainwise IP-100,2013-08-29 05:56:00,
2013-08-29 01:01:00,77.8,73.0,29.03,SE,135,3.7,3.7,87,0.00,,,0.00,Rainwise IP-100,2013-08-29 06:01:00,
2013-08-29 01:06:00,77.8,73.0,29.03,SE,135,2.8,5.0,87,0.00,,,0.00,Rainwise IP-100,2013-08-29 06:06:00,
2013-08-29 01:11:00,77.8,73.0,29.04,SSW,202,0.0,4.0,88,0.00,,,0.00,Rainwise IP-100,2013-08-29 06:11:00,
2013-08-29 01:16:00,77.6,73.0,29.03,SE,135,4.0,4.0,88,0.00,,,0.00,Rainwise IP-100,2013-08-29 06:16:00,
2013-08-29 01:21:00,77.5,73.0,29.03,SE,135,2.8,4.0,88,0.00,,,0.00,Rainwise IP-100,2013-08-29 06:21:00,
2013-08-29 01:26:00,77.5,73.0,29.04,SE,135,0.0,4.0,88,0.00,,,0.00,Rainwise IP-100,2013-08-29 06:26:00,
2013-08-29 01:31:00,77.4,73.0,29.03,ESE,112,0.0,2.0,88,0.00,,,0.00,Rainwise IP-100,2013-08-29 06:31:00,
2013-08-29 01:36:00,77.3,73.0,29.03,NNE,22,0.0,2.0,88,0.00,,,0.00,Rainwise IP-100,2013-08-29 06:36:00,
2013-08-29 01:41:00,77.4,73.0,29.03,East,90,0.0,3.0,88,0.00,,,0.00,Rainwise IP-100,2013-08-29 06:41:00,
2013-08-29 01:46:00,77.3,73.0,29.03,ESE,112,1.6,2.0,88,0.00,,,0.00,Rainwise IP-100,2013-08-29 06:46:00,
2013-08-29 01:51:00,77.3,73.0,29.03,NE,45,0.0,2.0,88,0.00,,,0.00,Rainwise IP-100,2013-08-29 06:51:00,
2013-08-29 01:56:00,77.4,74.0,29.02,South,180,1.2,3.0,89,0.00,,,0.00,Rainwise IP-100,2013-08-29 06:56:00,
2013-08-29 02:01:00,77.4,74.0,29.02,SE,135,3.0,3.0,89,0.00,,,0.00,Rainwise IP-100,2013-08-29 07:01:00,
2013-08-29 02:06:00,77.2,74.0,29.02,ENE,67,1.4,3.0,89,0.00,,,0.00,Rainwise IP-100,2013-08-29 07:06:00,
2013-08-29 02:11:00,77.1,73.0,29.02,ENE,67,0.0,2.0,89,0.00,,,0.00,Rainwise IP-100,2013-08-29 07:11:00,
2013-08-29 02:16:00,77.1,73.0,29.03,NNE,22,0.0,2.0,89,0.00,,,0.00,Rainwise IP-100,2013-08-29 07:16:00,
2013-08-29 02:21:00,77.1,73.0,29.02,SE,135,2.1,2.1,89,0.00,,,0.00,Rainwise IP-100,2013-08-29 07:21:00,
2013-08-29 02:26:00,77.1,73.0,29.02,SE,135,2.8,3.0,89,0.00,,,0.00,Rainwise IP-100,2013-08-29 07:26:00,
2013-08-29 02:31:00,77.1,73.0,29.02,SE,135,0.0,4.0,89,0.00,,,0.00,Rainwise IP-100,2013-08-29 07:31:00,
2013-08-29 02:36:00,77.3,74.0,29.02,SE,135,0.0,4.0,89,0.00,,,0.00,Rainwise IP-100,2013-08-29 07:36:00,
2013-08-29 02:41:00,77.4,74.0,29.02,SE,135,3.3,5.0,89,0.00,,,0.00,Rainwise IP-100,2013-08-29 07:41:00,
2013-08-29 02:46:00,77.4,74.0,29.02,SSE,157,0.0,4.0,89,0.00,,,0.00,Rainwise IP-100,2013-08-29 07:46:00,
2013-08-29 02:51:00,77.3,74.0,29.02,SSE,157,2.8,5.0,89,0.00,,,0.00,Rainwise IP-100,2013-08-29 07:51:00,
2013-08-29 02:56:00,77.2,74.0,29.02,SSE,157,2.1,5.0,89,0.00,,,0.00,Rainwise IP-100,2013-08-29 07:56:00,
2013-08-29 03:01:00,77.2,74.0,29.02,SE,135,0.0,4.0,89,0.00,,,0.00,Rainwise IP-100,2013-08-29 08:01:00,
2013-08-29 03:06:00,77.2,74.0,29.02,ESE,112,0.0,3.0,90,0.00,,,0.00,Rainwise IP-100,2013-08-29 08:06:00,
2013-08-29 03:11:00,77.1,74.0,29.02,ESE,112,1.4,3.0,90,0.00,,,0.00,Rainwise IP-100,2013-08-29 08:11:00,
2013-08-29 03:16:00,77.0,74.0,29.02,NNE,22,1.4,2.0,90,0.00,,,0.00,Rainwise IP-100,2013-08-29 08:16:00,
2013-08-29 03:21:00,77.1,74.0,29.02,East,90,0.0,3.0,90,0.00,,,0.00,Rainwise IP-100,2013-08-29 08:21:00,
2013-08-29 03:26:00,77.1,74.0,29.02,SE,135,0.0,3.0,90,0.00,,,0.00,Rainwise IP-100,2013-08-29 08:26:00,
2013-08-29 03:31:00,77.0,74.0,29.02,SE,135,0.0,2.0,90,0.00,,,0.00,Rainwise IP-100,2013-08-29 08:31:00,
2013-08-29 03:36:00,77.0,74.0,29.02,North,360,0.0,3.0,91,0.00,,,0.00,Rainwise IP-100,2013-08-29 08:36:00,
2013-08-29 03:41:00,77.0,74.0,29.02,South,180,0.0,3.0,91,0.00,,,0.00,Rainwise IP-100,2013-08-29 08:41:00,
2013-08-29 03:46:00,77.0,74.0,29.02,ESE,112,1.4,2.0,91,0.00,,,0.00,Rainwise IP-100,2013-08-29 08:46:00,
2013-08-29 03:51:00,77.0,74.0,29.02,ESE,112,0.0,3.0,91,0.00,,,0.00,Rainwise IP-100,2013-08-29 08:51:00,
2013-08-29 03:56:00,77.1,74.0,29.02,SE,135,1.4,3.0,91,0.00,,,0.00,Rainwise IP-100,2013-08-29 08:56:00,
2013-08-29 04:01:00,77.1,74.0,29.02,SE,135,0.0,2.0,91,0.00,,,0.00,Rainwise IP-100,2013-08-29 09:01:00,
2013-08-29 04:06:00,77.1,74.0,29.02,SE,135,2.6,2.6,91,0.00,,,0.00,Rainwise IP-100,2013-08-29 09:06:00,
2013-08-29 04:11:00,77.2,74.0,29.02,ESE,112,0.0,3.0,91,0.00,,,0.00,Rainwise IP-100,2013-08-29 09:11:00,
2013-08-29 04:16:00,77.2,74.0,29.01,East,90,0.0,0.0,91,0.00,,,0.00,Rainwise IP-100,2013-08-29 09:16:00,
2013-08-29 04:21:00,77.2,74.0,29.01,East,90,0.0,1.0,91,0.00,,,0.00,Rainwise IP-100,2013-08-29 09:21:00,
2013-08-29 04:26:00,77.2,74.0,29.01,East,90,1.6,3.0,92,0.00,,,0.00,Rainwise IP-100,2013-08-29 09:26:00,
2013-08-29 04:31:00,77.2,74.0,29.01,ESE,112,7.2,7.2,92,0.00,,,0.00,Rainwise IP-100,2013-08-29 09:31:00,
2013-08-29 04:36:00,77.2,74.0,29.01,ESE,112,7.9,7.9,91,0.00,,,0.00,Rainwise IP-100,2013-08-29 09:36:00,
2013-08-29 04:41:00,77.1,74.0,29.01,SE,135,4.7,8.0,91,0.00,,,0.00,Rainwise IP-100,2013-08-29 09:41:00,
2013-08-29 04:46:00,77.0,74.0,29.00,ESE,112,8.9,8.9,91,0.00,,,0.00,Rainwise IP-100,2013-08-29 09:46:00,
2013-08-29 04:51:00,77.0,74.0,29.01,ESE,112,5.6,10.0,91,0.00,,,0.00,Rainwise IP-100,2013-08-29 09:51:00,
2013-08-29 04:56:00,77.0,74.0,29.00,ESE,112,4.2,8.0,91,0.00,,,0.00,Rainwise IP-100,2013-08-29 09:56:00,
2013-08-29 05:01:00,77.0,74.0,29.00,SE,135,4.7,8.0,91,0.00,,,0.00,Rainwise IP-100,2013-08-29 10:01:00,
2013-08-29 05:06:00,77.1,74.0,29.01,SE,135,4.2,9.0,91,0.00,,,0.00,Rainwise IP-100,2013-08-29 10:06:00,
2013-08-29 05:11:00,77.2,74.0,29.01,SE,135,5.6,8.0,91,0.00,,,0.00,Rainwise IP-100,2013-08-29 10:11:00,
2013-08-29 05:16:00,77.2,74.0,29.02,East,90,6.1,10.0,91,0.00,,,0.00,Rainwise IP-100,2013-08-29 10:16:00,
2013-08-29 05:21:00,77.2,74.0,29.02,ESE,112,10.3,10.3,91,0.00,,,0.00,Rainwise IP-100,2013-08-29 10:21:00,
2013-08-29 05:26:00,77.0,74.0,29.02,ESE,112,11.4,11.4,92,0.00,,,0.00,Rainwise IP-100,2013-08-29 10:26:00,
2013-08-29 05:31:00,77.0,74.0,29.02,ESE,112,10.3,14.0,92,0.00,,,0.00,Rainwise IP-100,2013-08-29 10:31:00,
2013-08-29 05:36:00,77.0,74.0,29.02,ESE,112,8.2,13.0,92,0.00,,,0.00,Rainwise IP-100,2013-08-29 10:36:00,
2013-08-29 05:41:00,77.0,74.0,29.01,ESE,112,8.9,14.0,91,0.00,,,0.00,Rainwise IP-100,2013-08-29 10:41:00,
2013-08-29 05:46:00,76.8,74.0,29.01,SE,135,4.7,12.0,91,0.00,,,0.00,Rainwise IP-100,2013-08-29 10:46:00,
2013-08-29 05:51:00,76.8,74.0,29.01,ESE,112,6.8,9.0,91,0.00,,,0.00,Rainwise IP-100,2013-08-29 10:51:00,
2013-08-29 05:56:00,76.9,74.0,29.02,SE,135,4.7,7.0,92,0.00,,,0.00,Rainwise IP-100,2013-08-29 10:56:00,
2013-08-29 06:01:00,76.9,74.0,29.01,SE,135,3.5,5.0,92,0.00,,,0.00,Rainwise IP-100,2013-08-29 11:01:00,
2013-08-29 06:06:00,76.9,74.0,29.02,SE,135,5.6,5.6,92,0.00,,,0.00,Rainwise IP-100,2013-08-29 11:06:00,
2013-08-29 06:11:00,77.0,74.0,29.02,SE,135,4.9,8.0,92,0.00,,,0.00,Rainwise IP-100,2013-08-29 11:11:00,
2013-08-29 06:16:00,76.9,74.0,29.02,SE,135,6.8,8.0,92,0.00,,,0.00,Rainwise IP-100,2013-08-29 11:16:00,
2013-08-29 06:21:00,76.8,74.0,29.01,SSE,157,2.6,8.0,92,0.00,,,0.00,Rainwise IP-100,2013-08-29 11:21:00,
2013-08-29 06:26:00,76.7,74.0,29.02,SE,135,7.0,10.0,92,0.00,,,0.00,Rainwise IP-100,2013-08-29 11:26:00,
2013-08-29 06:31:00,76.5,74.0,29.02,SE,135,7.2,9.0,92,0.00,,,0.00,Rainwise IP-100,2013-08-29 11:31:00,
2013-08-29 06:36:00,76.4,74.0,29.02,ESE,112,2.3,7.0,93,0.00,,,0.00,Rainwise IP-100,2013-08-29 11:36:00,
2013-08-29 06:41:00,76.3,74.0,29.03,South,180,1.6,4.0,93,0.00,,,0.00,Rainwise IP-100,2013-08-29 11:41:00,
2013-08-29 06:46:00,76.2,74.0,29.02,NW,315,1.9,4.0,93,0.00,,,0.00,Rainwise IP-100,2013-08-29 11:46:00,
2013-08-29 06:51:00,76.1,73.0,29.02,ENE,67,2.1,2.1,93,0.00,,,0.00,Rainwise IP-100,2013-08-29 11:51:00,
2013-08-29 06:56:00,76.1,74.0,29.02,North,360,1.2,2.0,94,0.00,,,0.00,Rainwise IP-100,2013-08-29 11:56:00,
2013-08-29 07:01:00,75.9,74.0,29.01,WNW,292,0.0,2.0,94,0.00,,,0.00,Rainwise IP-100,2013-08-29 12:01:00,
2013-08-29 07:06:00,75.9,74.0,29.02,SE,135,0.0,2.0,94,0.00,,,0.00,Rainwise IP-100,2013-08-29 12:06:00,
2013-08-29 07:11:00,76.1,74.0,29.02,SSE,157,3.7,4.0,94,0.00,,,0.00,Rainwise IP-100,2013-08-29 12:11:00,
2013-08-29 07:16:00,76.2,74.0,29.02,SE,135,2.6,5.0,95,0.00,,,0.00,Rainwise IP-100,2013-08-29 12:16:00,
2013-08-29 07:21:00,76.1,74.0,29.02,South,180,1.4,4.0,94,0.00,,,0.00,Rainwise IP-100,2013-08-29 12:21:00,
2013-08-29 07:26:00,76.1,74.0,29.02,SSE,157,2.3,5.0,94,0.00,,,0.00,Rainwise IP-100,2013-08-29 12:26:00,
2013-08-29 07:31:00,76.2,74.0,29.02,SE,135,1.6,5.0,94,0.00,,,0.00,Rainwise IP-100,2013-08-29 12:31:00,
2013-08-29 07:36:00,76.5,74.0,29.01,NNE,22,0.0,3.0,93,0.00,,,0.00,Rainwise IP-100,2013-08-29 12:36:00,
2013-08-29 07:41:00,77.0,74.0,29.02,North,360,0.0,2.0,93,0.00,,,0.00,Rainwise IP-100,2013-08-29 12:41:00,
2013-08-29 07:46:00,77.5,75.0,29.01,ESE,112,0.0,1.0,92,0.00,,,0.00,Rainwise IP-100,2013-08-29 12:46:00,
2013-08-29 07:51:00,78.0,75.0,29.01,NW,315,0.0,1.0,91,0.00,,,0.00,Rainwise IP-100,2013-08-29 12:51:00,
2013-08-29 07:56:00,78.6,75.0,29.01,East,90,0.0,1.0,89,0.00,,,0.00,Rainwise IP-100,2013-08-29 12:56:00,
2013-08-29 08:01:00,78.8,74.0,29.01,NNE,22,0.0,2.0,88,0.00,,,0.00,Rainwise IP-100,2013-08-29 13:01:00,
2013-08-29 08:06:00,79.0,75.0,29.01,NNW,337,0.0,3.0,88,0.00,,,0.00,Rainwise IP-100,2013-08-29 13:06:00,
2013-08-29 08:11:00,79.4,75.0,29.02,East,90,1.4,2.0,87,0.00,,,0.00,Rainwise IP-100,2013-08-29 13:11:00,
2013-08-29 08:16:00,79.6,75.0,29.01,North,360,0.0,3.0,86,0.00,,,0.00,Rainwise IP-100,2013-08-29 13:16:00,
2013-08-29 08:21:00,80.0,75.0,29.01,NNE,22,1.4,2.0,86,0.00,,,0.00,Rainwise IP-100,2013-08-29 13:21:00,
2013-08-29 08:26:00,80.4,75.0,29.01,NNW,337,1.6,2.0,85,0.00,,,0.00,Rainwise IP-100,2013-08-29 13:26:00,
2013-08-29 08:31:00,80.7,75.0,29.00,ESE,112,0.0,2.0,84,0.00,,,0.00,Rainwise IP-100,2013-08-29 13:31:00,
2013-08-29 08:36:00,81.1,75.0,29.00,NE,45,2.8,2.8,83,0.00,,,0.00,Rainwise IP-100,2013-08-29 13:36:00,
2013-08-29 08:41:00,81.5,76.0,29.01,ENE,67,0.0,3.0,83,0.00,,,0.00,Rainwise IP-100,2013-08-29 13:41:00,
2013-08-29 08:46:00,81.8,75.0,29.01,NNE,22,1.2,2.0,82,0.00,,,0.00,Rainwise IP-100,2013-08-29 13:46:00,
2013-08-29 08:51:00,82.3,76.0,29.01,SE,135,0.0,2.0,81,0.00,,,0.00,Rainwise IP-100,2013-08-29 13:51:00,
2013-08-29 08:56:00,82.8,76.0,29.01,ENE,67,1.2,2.0,80,0.00,,,0.00,Rainwise IP-100,2013-08-29 13:56:00,
2013-08-29 09:01:00,83.3,76.0,29.01,NE,45,0.0,2.0,79,0.00,,,0.00,Rainwise IP-100,2013-08-29 14:01:00,
2013-08-29 09:06:00,84.2,76.0,29.01,NNE,22,0.0,1.0,77,0.00,,,0.00,Rainwise IP-100,2013-08-29 14:06:00,
2013-08-29 09:11:00,84.9,76.0,29.00,NE,45,0.0,1.0,76,0.00,,,0.00,Rainwise IP-100,2013-08-29 14:11:00,
2013-08-29 09:16:00,85.3,76.0,29.00,ESE,112,0.0,1.0,74,0.00,,,0.00,Rainwise IP-100,2013-08-29 14:16:00,
2013-08-29 09:21:00,85.3,75.0,29.00,NE,45,1.4,1.4,73,0.00,,,0.00,Rainwise IP-100,2013-08-29 14:21:00,
2013-08-29 09:26:00,85.6,76.0,29.00,ENE,67,1.2,1.2,73,0.00,,,0.00,Rainwise IP-100,2013-08-29 14:26:00,
2013-08-29 09:31:00,86.0,76.0,29.01,ENE,67,0.0,2.0,72,0.00,,,0.00,Rainwise IP-100,2013-08-29 14:31:00,
2013-08-29 09:36:00,85.9,76.0,29.01,NE,45,0.0,2.0,72,0.00,,,0.00,Rainwise IP-100,2013-08-29 14:36:00,
2013-08-29 09:41:00,86.2,75.0,29.00,East,90,1.4,2.0,71,0.00,,,0.00,Rainwise IP-100,2013-08-29 14:41:00,
2013-08-29 09:46:00,86.9,76.0,29.00,NE,45,0.0,2.0,70,0.00,,,0.00,Rainwise IP-100,2013-08-29 14:46:00,
2013-08-29 09:51:00,87.2,76.0,29.00,ESE,112,0.0,2.0,70,0.00,,,0.00,Rainwise IP-100,2013-08-29 14:51:00,
2013-08-29 09:56:00,86.8,75.0,29.00,SE,135,0.0,3.0,69,0.00,,,0.00,Rainwise IP-100,2013-08-29 14:56:00,
2013-08-29 10:01:00,85.8,74.0,29.00,ESE,112,0.0,4.0,70,0.00,,,0.00,Rainwise IP-100,2013-08-29 15:01:00,
2013-08-29 10:06:00,85.7,75.0,29.00,SE,135,2.6,3.0,71,0.00,,,0.00,Rainwise IP-100,2013-08-29 15:06:00,
2013-08-29 10:11:00,85.4,74.0,29.00,SE,135,4.2,4.2,71,0.00,,,0.00,Rainwise IP-100,2013-08-29 15:11:00,
2013-08-29 10:16:00,83.9,74.0,29.00,SSE,157,4.7,6.0,73,0.00,,,0.00,Rainwise IP-100,2013-08-29 15:16:00,
2013-08-29 10:21:00,83.7,75.0,29.00,North,360,0.0,5.0,75,0.00,,,0.00,Rainwise IP-100,2013-08-29 15:21:00,
2013-08-29 10:26:00,85.3,76.0,29.00,NNW,337,0.0,3.0,74,0.00,,,0.00,Rainwise IP-100,2013-08-29 15:26:00,
2013-08-29 10:31:00,86.3,75.0,29.00,NW,315,0.0,2.0,71,0.00,,,0.00,Rainwise IP-100,2013-08-29 15:31:00,
2013-08-29 10:36:00,86.6,75.0,29.00,ESE,112,0.0,2.0,70,0.00,,,0.00,Rainwise IP-100,2013-08-29 15:36:00,
2013-08-29 10:41:00,87.0,75.0,29.00,South,180,0.0,2.0,69,0.00,,,0.00,Rainwise IP-100,2013-08-29 15:41:00,
2013-08-29 10:46:00,87.7,75.0,29.00,SSE,157,0.0,2.0,67,0.00,,,0.00,Rainwise IP-100,2013-08-29 15:46:00,
2013-08-29 10:51:00,88.6,76.0,28.99,SSE,157,2.1,2.1,67,0.00,,,0.00,Rainwise IP-100,2013-08-29 15:51:00,
2013-08-29 10:56:00,88.7,76.0,29.00,SSE,157,1.4,3.0,67,0.00,,,0.00,Rainwise IP-100,2013-08-29 15:56:00,
2013-08-29 11:01:00,87.5,75.0,29.00,SE,135,0.0,4.0,67,0.00,,,0.00,Rainwise IP-100,2013-08-29 16:01:00,
2013-08-29 11:06:00,86.8,74.0,29.00,SE,135,3.7,3.7,68,0.00,,,0.00,Rainwise IP-100,2013-08-29 16:06:00,
2013-08-29 11:11:00,87.1,75.0,29.00,ESE,112,0.0,3.0,69,0.00,,,0.00,Rainwise IP-100,2013-08-29 16:11:00,
2013-08-29 11:16:00,87.7,75.0,29.00,ESE,112,2.1,3.0,67,0.00,,,0.00,Rainwise IP-100,2013-08-29 16:16:00,
2013-08-29 11:21:00,87.4,75.0,29.00,ESE,112,1.4,4.0,67,0.00,,,0.00,Rainwise IP-100,2013-08-29 16:21:00,
2013-08-29 11:26:00,87.2,74.0,28.99,SSE,157,0.0,2.0,67,0.00,,,0.00,Rainwise IP-100,2013-08-29 16:26:00,
2013-08-29 11:31:00,87.5,76.0,29.00,East,90,0.0,2.0,68,0.00,,,0.00,Rainwise IP-100,2013-08-29 16:31:00,
2013-08-29 11:36:00,87.8,76.0,29.00,ESE,112,0.0,2.0,68,0.00,,,0.00,Rainwise IP-100,2013-08-29 16:36:00,
2013-08-29 11:41:00,88.3,76.0,28.99,ESE,112,2.3,2.3,67,0.00,,,0.00,Rainwise IP-100,2013-08-29 16:41:00,
2013-08-29 11:46:00,88.8,76.0,28.99,East,90,1.6,2.0,66,0.00,,,0.00,Rainwise IP-100,2013-08-29 16:46:00,
2013-08-29 11:51:00,89.2,76.0,29.00,NNE,22,0.0,2.0,65,0.00,,,0.00,Rainwise IP-100,2013-08-29 16:51:00,
2013-08-29 11:56:00,88.9,75.0,29.00,ESE,112,0.0,2.0,64,0.00,,,0.00,Rainwise IP-100,2013-08-29 16:56:00,
2013-08-29 12:01:00,88.9,75.0,29.00,NNW,337,1.4,3.0,64,0.00,,,0.00,Rainwise IP-100,2013-08-29 17:01:00,
2013-08-29 12:06:00,89.1,75.0,28.99,ENE,67,0.0,2.0,64,0.00,,,0.00,Rainwise IP-100,2013-08-29 17:06:00,
2013-08-29 12:11:00,88.8,75.0,28.99,NNW,337,0.0,3.0,65,0.00,,,0.00,Rainwise IP-100,2013-08-29 17:11:00,
2013-08-29 12:16:00,88.7,75.0,28.99,East,90,0.0,2.0,65,0.00,,,0.00,Rainwise IP-100,2013-08-29 17:16:00,
2013-08-29 12:21:00,88.8,76.0,28.99,NNE,22,1.2,2.0,66,0.00,,,0.00,Rainwise IP-100,2013-08-29 17:21:00,
2013-08-29 12:26:00,88.8,75.0,28.99,East,90,1.6,3.0,65,0.00,,,0.00,Rainwise IP-100,2013-08-29 17:26:00,
2013-08-29 12:31:00,89.3,75.0,28.99,West,270,1.4,3.0,64,0.00,,,0.00,Rainwise IP-100,2013-08-29 17:31:00,
2013-08-29 12:36:00,90.2,74.0,28.98,South,180,0.0,3.0,61,0.00,,,0.00,Rainwise IP-100,2013-08-29 17:36:00,
2013-08-29 12:41:00,91.2,74.0,28.98,NW,315,0.0,2.0,59,0.00,,,0.00,Rainwise IP-100,2013-08-29 17:41:00,
2013-08-29 12:46:00,91.7,74.0,28.98,North,360,0.0,4.0,57,0.00,,,0.00,Rainwise IP-100,2013-08-29 17:46:00,
2013-08-29 12:51:00,92.1,74.0,28.98,ENE,67,3.3,3.3,56,0.00,,,0.00,Rainwise IP-100,2013-08-29 17:51:00,
2013-08-29 12:56:00,92.3,73.0,28.98,East,90,2.3,3.0,55,0.00,,,0.00,Rainwise IP-100,2013-08-29 17:56:00,
2013-08-29 13:01:00,92.5,74.0,28.98,WNW,292,0.0,3.0,55,0.00,,,0.00,Rainwise IP-100,2013-08-29 18:01:00,
2013-08-29 13:06:00,92.6,73.0,28.98,North,360,1.2,3.0,54,0.00,,,0.00,Rainwise IP-100,2013-08-29 18:06:00,
2013-08-29 13:11:00,92.1,73.0,28.98,NNW,337,1.4,2.0,55,0.00,,,0.00,Rainwise IP-100,2013-08-29 18:11:00,
2013-08-29 13:16:00,91.6,73.0,28.98,NNE,22,2.1,3.0,55,0.00,,,0.00,Rainwise IP-100,2013-08-29 18:16:00,
2013-08-29 13:21:00,90.9,72.0,28.98,South,180,0.0,3.0,54,0.00,,,0.00,Rainwise IP-100,2013-08-29 18:21:00,
2013-08-29 13:26:00,90.6,70.0,28.98,West,270,0.0,3.0,52,0.00,,,0.00,Rainwise IP-100,2013-08-29 18:26:00,
2013-08-29 13:31:00,90.6,70.0,28.98,ESE,112,0.0,4.0,51,0.00,,,0.00,Rainwise IP-100,2013-08-29 18:31:00,
2013-08-29 13:36:00,91.1,70.0,28.98,North,360,0.0,3.0,51,0.00,,,0.00,Rainwise IP-100,2013-08-29 18:36:00,
2013-08-29 13:41:00,92.1,71.0,28.97,ENE,67,1.2,1.2,50,0.00,,,0.00,Rainwise IP-100,2013-08-29 18:41:00,
2013-08-29 13:46:00,92.2,70.0,28.97,SE,135,0.0,2.0,49,0.00,,,0.00,Rainwise IP-100,2013-08-29 18:46:00,
2013-08-29 13:51:00,92.4,69.0,28.97,ENE,67,0.0,2.0,48,0.00,,,0.00,Rainwise IP-100,2013-08-29 18:51:00,
2013-08-29 13:56:00,93.2,69.0,28.96,ENE,67,0.0,2.0,46,0.00,,,0.00,Rainwise IP-100,2013-08-29 18:56:00,
2013-08-29 14:01:00,93.4,69.0,28.96,NNE,22,0.0,3.0,46,0.00,,,0.00,Rainwise IP-100,2013-08-29 19:01:00,
2013-08-29 14:06:00,93.5,70.0,28.96,ENE,67,1.4,2.0,47,0.00,,,0.00,Rainwise IP-100,2013-08-29 19:06:00,
2013-08-29 14:11:00,93.7,70.0,28.96,South,180,0.0,3.0,46,0.00,,,0.00,Rainwise IP-100,2013-08-29 19:11:00,
2013-08-29 14:16:00,93.6,69.0,28.96,SSW,202,4.2,4.2,46,0.00,,,0.00,Rainwise IP-100,2013-08-29 19:16:00,
2013-08-29 14:21:00,93.2,69.0,28.95,ESE,112,3.3,4.0,46,0.00,,,0.00,Rainwise IP-100,2013-08-29 19:21:00,
2013-08-29 14:26:00,92.2,69.0,28.95,NNE,22,0.0,3.0,48,0.00,,,0.00,Rainwise IP-100,2013-08-29 19:26:00,
2013-08-29 14:31:00,92.0,70.0,28.95,ENE,67,1.2,2.0,49,0.00,,,0.00,Rainwise IP-100,2013-08-29 19:31:00,
2013-08-29 14:36:00,92.3,71.0,28.95,ESE,112,0.0,1.0,50,0.00,,,0.00,Rainwise IP-100,2013-08-29 19:36:00,
2013-08-29 14:41:00,92.5,72.0,28.95,South,180,0.0,1.0,51,0.00,,,0.00,Rainwise IP-100,2013-08-29 19:41:00,
2013-08-29 14:46:00,92.5,72.0,28.95,South,180,0.0,0.0,51,0.00,,,0.00,Rainwise IP-100,2013-08-29 19:46:00,
2013-08-29 14:51:00,92.0,72.0,28.94,SE,135,1.4,2.0,52,0.00,,,0.00,Rainwise IP-100,2013-08-29 19:51:00,
2013-08-29 14:56:00,91.3,71.0,28.94,ESE,112,0.0,1.0,53,0.00,,,0.00,Rainwise IP-100,2013-08-29 19:56:00,
2013-08-29 15:01:00,91.6,72.0,28.93,NNE,22,1.2,1.2,53,0.00,,,0.00,Rainwise IP-100,2013-08-29 20:01:00,
2013-08-29 15:06:00,92.3,72.0,28.93,North,360,1.6,2.0,52,0.00,,,0.00,Rainwise IP-100,2013-08-29 20:06:00,
2013-08-29 15:11:00,93.0,72.0,28.94,NW,315,0.0,1.0,51,0.00,,,0.00,Rainwise IP-100,2013-08-29 20:11:00,
2013-08-29 15:16:00,93.4,72.0,28.93,NNW,337,0.0,2.0,51,0.00,,,0.00,Rainwise IP-100,2013-08-29 20:16:00,
2013-08-29 15:21:00,93.2,72.0,28.93,East,90,1.4,1.4,51,0.00,,,0.00,Rainwise IP-100,2013-08-29 20:21:00,
2013-08-29 15:26:00,92.2,71.0,28.93,West,270,0.0,2.0,51,0.00,,,0.00,Rainwise IP-100,2013-08-29 20:26:00,
2013-08-29 15:31:00,91.5,71.0,28.93,SE,135,0.0,1.0,52,0.00,,,0.00,Rainwise IP-100,2013-08-29 20:31:00,
2013-08-29 15:36:00,91.2,72.0,28.93,NNE,22,1.2,2.0,54,0.00,,,0.00,Rainwise IP-100,2013-08-29 20:36:00,
2013-08-29 15:41:00,90.5,72.0,28.92,NE,45,1.2,1.2,56,0.00,,,0.00,Rainwise IP-100,2013-08-29 20:41:00,
2013-08-29 15:46:00,89.9,72.0,28.92,NE,45,0.0,2.0,57,0.00,,,0.00,Rainwise IP-100,2013-08-29 20:46:00,
2013-08-29 15:51:00,89.5,72.0,28.91,NNE,22,0.0,2.0,57,0.00,,,0.00,Rainwise IP-100,2013-08-29 20:51:00,
2013-08-29 15:56:00,89.4,72.0,28.91,ENE,67,1.6,3.0,58,0.00,,,0.00,Rainwise IP-100,2013-08-29 20:56:00,
2013-08-29 16:01:00,89.5,72.0,28.91,ENE,67,1.4,2.0,58,0.00,,,0.00,Rainwise IP-100,2013-08-29 21:01:00,
2013-08-29 16:06:00,89.7,73.0,28.91,NNE,22,0.0,2.0,58,0.00,,,0.00,Rainwise IP-100,2013-08-29 21:06:00,
2013-08-29 16:11:00,89.5,73.0,28.91,SE,135,0.0,2.0,59,0.00,,,0.00,Rainwise IP-100,2013-08-29 21:11:00,
2013-08-29 16:16:00,89.3,73.0,28.91,ESE,112,0.0,2.0,59,0.00,,,0.00,Rainwise IP-100,2013-08-29 21:16:00,
2013-08-29 16:21:00,89.3,73.0,28.91,ENE,67,0.0,2.0,59,0.00,,,0.00,Rainwise IP-100,2013-08-29 21:21:00,
2013-08-29 16:26:00,89.2,73.0,28.91,NNE,22,0.0,3.0,60,0.00,,,0.00,Rainwise IP-100,2013-08-29 21:26:00,
2013-08-29 16:31:00,89.2,73.0,28.91,ESE,112,0.0,2.0,60,0.00,,,0.00,Rainwise IP-100,2013-08-29 21:31:00,
2013-08-29 16:36:00,89.2,73.0,28.91,East,90,0.0,2.0,59,0.00,,,0.00,Rainwise IP-100,2013-08-29 21:36:00,
2013-08-29 16:41:00,89.2,73.0,28.91,NNE,22,0.0,1.0,59,0.00,,,0.00,Rainwise IP-100,2013-08-29 21:41:00,
2013-08-29 16:46:00,89.8,74.0,28.91,NW,315,0.0,1.0,60,0.00,,,0.00,Rainwise IP-100,2013-08-29 21:46:00,
2013-08-29 16:51:00,90.7,74.0,28.92,NW,315,0.0,0.0,59,0.00,,,0.00,Rainwise IP-100,2013-08-29 21:51:00,
2013-08-29 16:56:00,91.5,74.0,28.91,SW,225,1.4,1.4,57,0.00,,,0.00,Rainwise IP-100,2013-08-29 21:56:00,
2013-08-29 17:01:00,91.7,73.0,28.91,South,180,0.0,2.0,55,0.00,,,0.00,Rainwise IP-100,2013-08-29 22:01:00,
2013-08-29 17:06:00,91.1,72.0,28.91,ENE,67,0.0,3.0,55,0.00,,,0.00,Rainwise IP-100,2013-08-29 22:06:00,
2013-08-29 17:11:00,90.3,72.0,28.91,SE,135,0.0,2.0,56,0.00,,,0.00,Rainwise IP-100,2013-08-29 22:11:00,
2013-08-29 17:16:00,89.7,72.0,28.91,ESE,112,1.6,3.0,56,0.00,,,0.00,Rainwise IP-100,2013-08-29 22:16:00,
2013-08-29 17:21:00,89.1,72.0,28.90,NE,45,1.2,4.0,57,0.00,,,0.00,Rainwise IP-100,2013-08-29 22:21:00,
2013-08-29 17:26:00,88.6,72.0,28.90,NNE,22,1.6,3.0,58,0.00,,,0.00,Rainwise IP-100,2013-08-29 22:26:00,
2013-08-29 17:31:00,88.3,72.0,28.90,ENE,67,0.0,2.0,59,0.00,,,0.00,Rainwise IP-100,2013-08-29 22:31:00,
2013-08-29 17:36:00,88.3,72.0,28.90,West,270,1.2,2.0,60,0.00,,,0.00,Rainwise IP-100,2013-08-29 22:36:00,
2013-08-29 17:41:00,88.2,72.0,28.91,South,180,0.0,4.0,59,0.00,,,0.00,Rainwise IP-100,2013-08-29 22:41:00,
2013-08-29 17:46:00,88.2,72.0,28.91,SSW,202,1.9,4.0,59,0.00,,,0.00,Rainwise IP-100,2013-08-29 22:46:00,
2013-08-29 17:51:00,88.5,72.0,28.91,SSW,202,0.0,2.0,59,0.00,,,0.00,Rainwise IP-100,2013-08-29 22:51:00,
2013-08-29 17:56:00,89.1,72.0,28.91,SSE,157,1.2,1.2,58,0.00,,,0.00,Rainwise IP-100,2013-08-29 22:56:00,
2013-08-29 18:01:00,89.8,72.0,28.91,South,180,0.0,2.0,56,0.00,,,0.00,Rainwise IP-100,2013-08-29 23:01:00,
2013-08-29 18:06:00,90.3,72.0,28.91,SW,225,0.0,1.0,56,0.00,,,0.00,Rainwise IP-100,2013-08-29 23:06:00,
2013-08-29 18:11:00,90.0,72.0,28.91,WSW,247,1.4,2.0,56,0.00,,,0.00,Rainwise IP-100,2013-08-29 23:11:00,
2013-08-29 18:16:00,89.4,71.0,28.91,SW,225,0.0,1.0,55,0.00,,,0.00,Rainwise IP-100,2013-08-29 23:16:00,
2013-08-29 18:21:00,88.7,71.0,28.92,SSE,157,0.0,4.0,56,0.00,,,0.00,Rainwise IP-100,2013-08-29 23:21:00,
2013-08-29 18:26:00,88.2,71.0,28.92,SSW,202,0.0,2.0,57,0.00,,,0.00,Rainwise IP-100,2013-08-29 23:26:00,
2013-08-29 18:31:00,88.5,71.0,28.92,WSW,247,0.0,2.0,57,0.00,,,0.00,Rainwise IP-100,2013-08-29 23:31:00,
2013-08-29 18:36:00,88.4,72.0,28.92,WSW,247,0.0,3.0,58,0.00,,,0.00,Rainwise IP-100,2013-08-29 23:36:00,
2013-08-29 18:41:00,87.9,72.0,28.92,WSW,247,0.0,3.0,59,0.00,,,0.00,Rainwise IP-100,2013-08-29 23:41:00,
2013-08-29 18:46:00,87.8,71.0,28.91,WSW,247,0.0,0.0,59,0.00,,,0.00,Rainwise IP-100,2013-08-29 23:46:00,
2013-08-29 18:51:00,87.7,72.0,28.91,WSW,247,0.0,0.0,60,0.00,,,0.00,Rainwise IP-100,2013-08-29 23:51:00,
2013-08-29 18:56:00,87.7,72.0,28.91,WSW,247,0.0,2.0,60,0.00,,,0.00,Rainwise IP-100,2013-08-29 23:56:00,
2013-08-29 19:01:00,87.7,72.0,28.91,SW,225,0.0,2.0,60,0.00,,,0.00,Rainwise IP-100,2013-08-30 00:01:00,
2013-08-29 19:06:00,87.7,72.0,28.91,SSW,202,0.0,2.0,60,0.00,,,0.00,Rainwise IP-100,2013-08-30 00:06:00,
2013-08-29 19:11:00,87.6,72.0,28.91,SSW,202,0.0,2.0,61,0.00,,,0.00,Rainwise IP-100,2013-08-30 00:11:00,
2013-08-29 19:16:00,87.2,72.0,28.91,SSW,202,0.0,0.0,61,0.00,,,0.00,Rainwise IP-100,2013-08-30 00:16:00,
2013-08-29 19:21:00,86.9,72.0,28.90,SSW,202,0.0,0.0,61,0.00,,,0.00,Rainwise IP-100,2013-08-30 00:21:00,
2013-08-29 19:26:00,87.1,72.0,28.90,SSW,202,0.0,0.0,62,0.00,,,0.00,Rainwise IP-100,2013-08-30 00:26:00,
2013-08-29 19:31:00,87.1,72.0,28.90,WSW,247,0.0,1.0,62,0.00,,,0.00,Rainwise IP-100,2013-08-30 00:31:00,
2013-08-29 19:36:00,86.8,72.0,28.90,WSW,247,0.0,2.0,62,0.00,,,0.00,Rainwise IP-100,2013-08-30 00:36:00,
2013-08-29 19:41:00,86.5,72.0,28.90,SSW,202,0.0,0.0,62,0.00,,,0.00,Rainwise IP-100,2013-08-30 00:41:00,
2013-08-29 19:46:00,86.0,72.0,28.90,SE,135,0.0,1.0,63,0.00,,,0.00,Rainwise IP-100,2013-08-30 00:46:00,
2013-08-29 19:51:00,85.3,71.0,28.90,SE,135,0.0,0.0,64,0.00,,,0.00,Rainwise IP-100,2013-08-30 00:51:00,
2013-08-29 19:56:00,84.7,72.0,28.89,SE,135,0.0,0.0,66,0.00,,,0.00,Rainwise IP-100,2013-08-30 00:56:00,
2013-08-29 20:01:00,84.3,72.0,28.90,SE,135,0.0,0.0,68,0.00,,,0.00,Rainwise IP-100,2013-08-30 01:01:00,
2013-08-29 20:06:00,83.7,73.0,28.89,SE,135,0.0,0.0,70,0.00,,,0.00,Rainwise IP-100,2013-08-30 01:06:00,
2013-08-29 20:11:00,83.4,72.0,28.90,SE,135,0.0,0.0,70,0.00,,,0.00,Rainwise IP-100,2013-08-30 01:11:00,
2013-08-29 20:16:00,83.1,72.0,28.90,SW,225,0.0,1.0,71,0.00,,,0.00,Rainwise IP-100,2013-08-30 01:16:00,
2013-08-29 20:21:00,82.7,72.0,28.89,SW,225,0.0,0.0,71,0.00,,,0.00,Rainwise IP-100,2013-08-30 01:21:00,
2013-08-29 20:26:00,82.5,72.0,28.90,SW,225,0.0,1.0,72,0.00,,,0.00,Rainwise IP-100,2013-08-30 01:26:00,
2013-08-29 20:31:00,82.3,72.0,28.89,SW,225,0.0,0.0,73,0.00,,,0.00,Rainwise IP-100,2013-08-30 01:31:00,
2013-08-29 20:36:00,82.1,72.0,28.89,WSW,247,0.0,0.0,72,0.00,,,0.00,Rainwise IP-100,2013-08-30 01:36:00,
2013-08-29 20:41:00,81.9,72.0,28.90,WSW,247,0.0,0.0,72,0.00,,,0.00,Rainwise IP-100,2013-08-30 01:41:00,
2013-08-29 20:46:00,81.8,71.0,28.90,NNW,337,0.0,1.0,72,0.00,,,0.00,Rainwise IP-100,2013-08-30 01:46:00,
2013-08-29 20:51:00,81.8,71.0,28.90,WSW,247,0.0,1.0,71,0.00,,,0.00,Rainwise IP-100,2013-08-30 01:51:00,
2013-08-29 20:56:00,81.8,71.0,28.90,WNW,292,1.2,1.2,70,0.00,,,0.00,Rainwise IP-100,2013-08-30 01:56:00,
2013-08-29 21:01:00,81.7,70.0,28.91,WSW,247,0.0,2.0,68,0.00,,,0.00,Rainwise IP-100,2013-08-30 02:01:00,
2013-08-29 21:06:00,81.6,70.0,28.91,WSW,247,0.0,0.0,68,0.00,,,0.00,Rainwise IP-100,2013-08-30 02:06:00,
2013-08-29 21:11:00,81.4,69.0,28.90,SW,225,0.0,1.0,68,0.00,,,0.00,Rainwise IP-100,2013-08-30 02:11:00,
2013-08-29 21:16:00,81.2,70.0,28.91,SW,225,0.0,0.0,69,0.00,,,0.00,Rainwise IP-100,2013-08-30 02:16:00,
2013-08-29 21:21:00,81.1,70.0,28.90,SW,225,0.0,0.0,70,0.00,,,0.00,Rainwise IP-100,2013-08-30 02:21:00,
2013-08-29 21:26:00,80.9,71.0,28.91,SW,225,0.0,0.0,71,0.00,,,0.00,Rainwise IP-100,2013-08-30 02:26:00,
2013-08-29 21:31:00,80.7,70.0,28.90,SW,225,0.0,0.0,71,0.00,,,0.00,Rainwise IP-100,2013-08-30 02:31:00,
2013-08-29 21:36:00,80.5,71.0,28.90,SW,225,0.0,0.0,72,0.00,,,0.00,Rainwise IP-100,2013-08-30 02:36:00,
2013-08-29 21:41:00,80.4,71.0,28.91,SSW,202,0.0,0.0,73,0.00,,,0.00,Rainwise IP-100,2013-08-30 02:41:00,
2013-08-29 21:46:00,80.4,71.0,28.90,SSW,202,0.0,0.0,73,0.00,,,0.00,Rainwise IP-100,2013-08-30 02:46:00,
2013-08-29 21:51:00,80.4,71.0,28.91,South,180,0.0,0.0,73,0.00,,,0.00,Rainwise IP-100,2013-08-30 02:51:00,
2013-08-29 21:56:00,80.4,71.0,28.90,SSE,157,0.0,0.0,73,0.00,,,0.00,Rainwise IP-100,2013-08-30 02:56:00,
2013-08-29 22:01:00,80.4,71.0,28.90,SSE,157,0.0,0.0,73,0.00,,,0.00,Rainwise IP-100,2013-08-30 03:01:00,
2013-08-29 22:06:00,80.4,71.0,28.91,SSE,157,0.0,1.0,73,0.00,,,0.00,Rainwise IP-100,2013-08-30 03:06:00,
2013-08-29 22:11:00,80.2,71.0,28.90,SSE,157,0.0,0.0,73,0.00,,,0.00,Rainwise IP-100,2013-08-30 03:11:00,
2013-08-29 22:16:00,80.1,71.0,28.90,SSE,157,0.0,1.0,74,0.00,,,0.00,Rainwise IP-100,2013-08-30 03:16:00,
2013-08-29 22:21:00,80.0,71.0,28.90,SSE,157,0.0,1.0,74,0.00,,,0.00,Rainwise IP-100,2013-08-30 03:21:00,
2013-08-29 22:26:00,79.9,71.0,28.90,SSE,157,0.0,1.0,75,0.00,,,0.00,Rainwise IP-100,2013-08-30 03:26:00,
2013-08-29 22:31:00,79.9,71.0,28.90,SE,135,1.2,2.0,75,0.00,,,0.00,Rainwise IP-100,2013-08-30 03:31:00,
2013-08-29 22:36:00,79.9,71.0,28.91,SE,135,0.0,2.0,76,0.00,,,0.00,Rainwise IP-100,2013-08-30 03:36:00,
2013-08-29 22:41:00,79.8,71.0,28.90,SE,135,0.0,1.0,76,0.00,,,0.00,Rainwise IP-100,2013-08-30 03:41:00,
2013-08-29 22:46:00,79.7,72.0,28.90,ESE,112,0.0,0.0,77,0.00,,,0.00,Rainwise IP-100,2013-08-30 03:46:00,
2013-08-29 22:51:00,79.6,72.0,28.90,ESE,112,0.0,0.0,77,0.00,,,0.00,Rainwise IP-100,2013-08-30 03:51:00,
2013-08-29 22:56:00,79.4,72.0,28.90,ESE,112,0.0,0.0,78,0.00,,,0.00,Rainwise IP-100,2013-08-30 03:56:00,
2013-08-29 23:01:00,79.4,72.0,28.89,ESE,112,0.0,0.0,78,0.00,,,0.00,Rainwise IP-100,2013-08-30 04:01:00,
2013-08-29 23:06:00,79.4,72.0,28.89,ESE,112,1.2,1.2,78,0.00,,,0.00,Rainwise IP-100,2013-08-30 04:06:00,
2013-08-29 23:11:00,79.4,72.0,28.90,ESE,112,0.0,1.0,79,0.00,,,0.00,Rainwise IP-100,2013-08-30 04:11:00,
2013-08-29 23:16:00,79.3,72.0,28.90,ESE,112,0.0,0.0,79,0.00,,,0.00,Rainwise IP-100,2013-08-30 04:16:00,
2013-08-29 23:21:00,79.3,72.0,28.90,SE,135,0.0,0.0,79,0.00,,,0.00,Rainwise IP-100,2013-08-30 04:21:00,
2013-08-29 23:26:00,79.4,72.0,28.89,SE,135,0.0,0.0,80,0.00,,,0.00,Rainwise IP-100,2013-08-30 04:26:00,
2013-08-29 23:31:00,79.5,73.0,28.89,ESE,112,0.0,1.0,80,0.00,,,0.00,Rainwise IP-100,2013-08-30 04:31:00,
2013-08-29 23:36:00,79.5,73.0,28.89,South,180,0.0,0.0,80,0.00,,,0.00,Rainwise IP-100,2013-08-30 04:36:00,
2013-08-29 23:41:00,79.5,73.0,28.89,SSW,202,0.0,1.0,80,0.00,,,0.00,Rainwise IP-100,2013-08-30 04:41:00,
2013-08-29 23:46:00,79.5,73.0,28.89,SSE,157,0.0,1.0,80,0.00,,,0.00,Rainwise IP-100,2013-08-30 04:46:00,
2013-08-29 23:51:00,79.4,72.0,28.89,SSE,157,0.0,1.0,80,0.00,,,0.00,Rainwise IP-100,2013-08-30 04:51:00,
2013-08-29 23:56:00,79.5,72.0,28.89,SW,225,1.2,4.0,79,0.00,,,0.00,Rainwise IP-100,2013-08-30 04:56:00,